Location: Chełm
(51.1339°N, 23.4725°E)
Time: 14:54:05
(UTC+01:00)

ISS - Pass Details

Date: 26 January 2019
Orbit: 403 x 411 km, 51.6° (Epoch: 18 February)

Event Time Altitude Azimuth Distance (km) Brightness Sun altitude
Rises 17:38:19 0° 229° (SW) 2,326 1.2 -14.4°
Reaches altitude 10° 17:40:28 10° 221° (SW) 1,470 -0.2 -14.7°
Maximum altitude 17:43:32 37° 152° (SSE) 657 -3.0 -15.2°
Enters shadow 17:44:28 30° 114° (ESE) 768 -2.9 -15.3°
